Meteo Giornale » Osservazioni meteo Stati Uniti (USA) » Teterboro

ore: 11:58 - Osservazioni Meteo Teterboro
Lat. 40° 51' N Lon. 74° 3' W Alt. 2 metri s.l.m.

coperto_pioggia

23 °C

Pioggia Foschia

Temp. 24 Ore

21 °C

26 °C

Sud

7.4 Km/h

Dew point 22 °C

Umidità 94 %

Visibilità  5 Km

Il sole sorge alle ore 06:23

Il sole tramonta alle ore 19:28

Data e Ora Cielo e Fenomeni T °C DP °C Um. % Pres. hPa Vis. km Vento km/h
Oggi h: 11:58 coperto_pioggia Pioggia Foschia 23 22 94 1015 5 S 7.4
Oggi h: 11:51 coperto_pioggia Pioggia Foschia 23 22 94 1015 5 S 7.4
Oggi h: 10:58 coperto_pioggia Pioggia Foschia 23 22 94 1016 5 N 0
Oggi h: 10:51 coperto_pioggia Pioggia Foschia 23 22 94 1016 6 N 5.5
Oggi h: 10:49 coperto_pioggia Pioviggine Foschia 23 22 94 1016 6 N 5.5
Oggi h: 10:01 foschia Foschia 24 22 88 1015 6 N 5.5
Oggi h: 09:51 foschia Foschia 23 22 94 1015 6 N 0
Oggi h: 08:51 coperto_pioggia Pioggia 23 22 94 1015 11 S/SO 9.3
Oggi h: 08:39 coperto Coperto 23 22 94 1015 11 S/SO 7.4
Oggi h: 07:51 coperto_pioggia Pioggia 24 21 83 1015 6 N 0
Oggi h: 06:58 coperto_pioggia Pioviggine Foschia 22 21 94 1016 6 N 0
Oggi h: 06:51 coperto_pioggia Pioviggine Foschia 22 21 94 1016 6 N 0
Oggi h: 06:42 coperto_pioggia Pioviggine Foschia 22 21 94 1016 6 N 0
Oggi h: 05:51 coperto_pioggia Pioviggine 21 21 100 1015 11 N 0
Oggi h: 05:46 coperto_pioggia Pioviggine 22 21 94 1015 13 N 0
Oggi h: 04:51 coperto_pioggia Pioviggine Foschia 22 21 94 1016 6 N 0
Oggi h: 04:30 coperto_pioggia Pioviggine Foschia 22 21 94 1016 6 N 0
Oggi h: 04:23 coperto_pioggia Pioviggine Foschia 22 21 94 1016 6 N 0
Oggi h: 03:51 coperto_pioggia Pioviggine 22 21 94 1016 13 N 0
Oggi h: 02:51 coperto_pioggia Pioviggine 22 21 94 1016 13 N 0
Oggi h: 01:51 coperto_pioggia Pioviggine 22 21 94 1016 10 N 5.5
Oggi h: 00:51 coperto_pioggia Pioggia Foschia 22 20 88 1017 10 S 9.3
Oggi h: 00:34 coperto_pioggia Pioggia 22 20 88 1017 13 N 0
Ieri h: 23:51 coperto Coperto 22 20 88 1017 10 S 7.4
Ieri h: 22:51 coperto Coperto 22 19 83 1017 10 S 7.4
Ieri h: 21:51 coperto Coperto 23 20 83 1018 10 S 7.4
Ieri h: 20:51 coperto_pioggia Pioggia 23 19 78 1018 10 N 5.5
Ieri h: 19:51 coperto Coperto 24 18 69 1018 10 S 7.4
Ieri h: 18:51 coperto Coperto 24 18 69 1018 10 N 5.5
Ieri h: 16:51 molto_nuvoloso Molto Nuvoloso 24 18 69 1018 10 S 14.8
Ieri h: 15:51 coperto Coperto 24 18 69 1019 10 SO 16.7
Ieri h: 14:51 coperto Coperto 26 17 57 1019 10 S/SO 9.3
Ieri h: 13:51 coperto Coperto 26 17 57 1019 10 SE 9.3
Ieri h: 12:51 molto_nuvoloso Molto Nuvoloso 25 17 61 1019 10 N 9.3